Location: Lecco
(45.8566°N, 9.3977°E)
Time: 04:15:51
(UTC+02:00)

Transit 4A - Pass Details

Date: 22 August 2020
Orbit: 863 x 982 km, 66.8° (Epoch: 23 September)

Event Time Altitude Azimuth Distance (km) Brightness Sun altitude
Rises 14:43:58 0° 329° (NNW) 3,649 10.8 51.8°
Reaches altitude 10° 14:47:03 10° 343° (NNW) 2,715 10.2 51.5°
Maximum altitude 14:52:11 25° 37° (NE) 1,867 9.4 51.0°
Drops below altitude 10° 14:57:21 10° 91° (E) 2,735 10.2 50.5°
Sets 15:00:26 0° 104° (ESE) 3,681 10.9 50.1°
